sat.trackr.live / text

‹ back to catalog

STARLINK-3449

NORAD 51745 · 2022-016AH

PAYLOAD ACTIVE UNKNOWN

§ Identity

Operator
Country
US
Launch date
2022-02-21
Launch site
AFETR
Launch vehicle
Mass (kg)
RCS (m²)

Purposes: comms

External: N2YO · Heavens-Above · Gunter

§ Orbital elements

Epoch: 2026-05-24T19:26:06.932544Z

Period
95.44 min
Inclination
53.2140°
Eccentricity
0.0001457
Mean motion
15.08853047 rev/d
Perigee alt
538.7 km
Apogee alt
540.7 km
Semi-major
6,917.8 km
B*
-1.1945e-4
RAAN
337.4031°
Arg perigee
81.3464°
Mean anomaly
278.7693°
Rev number
23,505

§ Raw data

STARLINK-34491 51745U 22016AH  26144.80980246 -.00002189  00000+0 -11945-3 0  99912 51745  53.2140 337.4031 0001457  81.3464 278.7693 15.08853047235051

JSON: /api/v1/satellites/51745 · /tle

For live sub-satellite position, see the globe view (requires WebGL).

§ Visibility from observer

Set your observer location to see the next 7 days of passes ≥ 10°. The values pass through the URL so the page stays shareable.

No JS? Fill the form by hand. The geolocation button needs JavaScript.